Weather History for EKOD - June, 2013

Change the Weather History Date:

Thursday, June 13, 2013

  Actual Average Record
Temperature  
Mean Temperature 63 °F -  
Max Temperature 67 °F 68 °F 86 °F (2006)
Min Temperature 56 °F 50 °F 44 °F (1998)
Degree Days  
Heating Degree Days 2    
Growing Degree Days 13 (Base 50)    
Moisture  
Dew Point 57 °F    
Average Humidity 82    
Maximum Humidity 100    
Minimum Humidity 52    
Precipitation  
Precipitation 0.24 in - - ()
Sea Level Pressure  
Sea Level Pressure 29.81 in    
Wind  
Wind Speed 13 mph ()    
Max Wind Speed 25 mph    
Max Gust Speed 39 mph    
Visibility 5.6 miles    
Events Rain    
Averages and records for this station are not official NWS values.
T = Trace of Precipitation, MM = Missing Value Source: Averaged Metar Reports

Daily Weather History Graph

Daily Weather History Graph

Search for Another Location

Airport or City:

Trip Planner

Search our weather history database for the weather conditions in past years. The results will help you decide how hot, cold, wet, or windy it might be!

Date:

Astronomy

Jun. 13, 2013 Rise Set
Actual Time 4:36 AM CEST 10:01 PM CEST
Civil Twilight 3:36 AM CEST 11:01 PM CEST
Nautical Twilight 1:51 AM CEST 12:46 AM CEST
Astronomical Twilight Sun does not set Sun does not set
Moon 9:38 AM CEST (6/13) No Moon Set
Length of Visible Light 19h 24m
Length of Day
17h 25m
Waxing Crescent, 19% of the Moon is Illuminated
Jun 13
Waxing Crescent
Jun 16
First Quarter
Jun 23
Full
Jun 30
Last Quarter
Jul 8
New

Hourly Weather History & Observations

Time (CEST) Temp. Dew Point Humidity Pressure Visibility Wind Dir Wind Speed Gust Speed Precip Events Conditions
2:00 AM 61 °F 60 °F 96% 29.91 in 1 mi SSE 5.8 mph - -   Mist
5:00 AM 61 °F 60 °F 97% 29.85 in 1 mi South 12.7 mph - - Rain Rain
7:20 AM 62.6 °F 60.8 °F 94% 29.80 in 2.2 mi South 11.5 mph - N/A Rain Light Rain
7:50 AM 62.6 °F 60.8 °F 94% 29.80 in 2.5 mi South 10.4 mph - N/A Rain Light Rain
8:00 AM 62 °F 61 °F 96% 29.81 in 2 mi South 11.5 mph - - Rain Light Rain
8:20 AM 62.6 °F 60.8 °F 94% 29.80 in 5.0 mi SSW 12.7 mph - N/A Rain Light Rain
8:50 AM 62.6 °F 62.6 °F 100% 29.80 in 5.0 mi SSW 11.5 mph - N/A Rain Light Rain
9:20 AM 62.6 °F 62.6 °F 100% 29.80 in 6.2 mi SSW 12.7 mph 26.5 mph N/A Rain Light Rain
9:50 AM 62.6 °F 62.6 °F 100% 29.80 in 6.2 mi SSW 12.7 mph 26.5 mph N/A Rain Light Rain
10:50 AM 62.6 °F 60.8 °F 94% 29.80 in 5.0 mi SW 15.0 mph - N/A Rain Rain
11:00 AM 62 °F 62 °F 98% 29.81 in 5 mi SW 15.0 mph - - Rain Light Rain
11:50 AM 62.6 °F 60.8 °F 94% 29.80 in 6.2 mi SSW 13.8 mph - N/A   Mostly Cloudy
12:50 PM 62.6 °F 59.0 °F 88% 29.80 in 6.2 mi SSW 18.4 mph 29.9 mph N/A   Mostly Cloudy
1:20 PM 64.4 °F 57.2 °F 77% 29.80 in 6.2 mi SSW 17.3 mph - N/A   Scattered Clouds
1:50 PM 64.4 °F 57.2 °F 77% 29.77 in 6.2 mi SW 20.7 mph - N/A   Scattered Clouds
2:00 PM 65 °F 57 °F 67% 29.80 in 31 mi SW 19.6 mph - -   Partly Cloudy
2:50 PM 66.2 °F 51.8 °F 60% 29.80 in 6.2 mi SW 23.0 mph 35.7 mph N/A   Scattered Clouds
3:20 PM 66.2 °F 48.2 °F 52% 29.80 in 6.2 mi SW 25.3 mph 38.0 mph N/A   Partly Cloudy
3:50 PM 66.2 °F 48.2 °F 52% 29.80 in 6.2 mi WSW 25.3 mph 39.1 mph N/A   Mostly Cloudy
5:00 PM 62 °F 50 °F 55% 29.82 in 31 mi SW 19.6 mph - -   Partly Cloudy
5:20 PM 62.6 °F 50.0 °F 63% 29.80 in 6.2 mi SW 19.6 mph - N/A   Mostly Cloudy
5:50 PM 62.6 °F 51.8 °F 68% 29.80 in 6.2 mi SW 20.7 mph 33.4 mph N/A   Mostly Cloudy
6:50 PM 60.8 °F 50.0 °F 68% 29.80 in 6.2 mi SW 17.3 mph 29.9 mph N/A   Mostly Cloudy
8:00 PM 59 °F 52 °F 71% 29.80 in 16 mi SW 17.3 mph - - Rain Light Rain Showers
11:00 PM 56 °F 55 °F 95% 29.80 in 9 mi SSW 13.8 mph - - Rain Light Rain Showers